Lamar, CO

9:24 AM MDT on June 23, 2017 (GMT -0600)
Lamar Municipal

Weather History for KLAA - April, 2013

Change the Weather History Date:

Saturday, April 6, 2013

  Actual Average Record
Temperature  
Mean Temperature 60 °F 49 °F  
Max Temperature 73 °F 66 °F 92 °F (1991)
Min Temperature 46 °F 33 °F 10 °F (1936)
Degree Days  
Heating Degree Days 5 16  
Month to date heating degree days 106 99  
Since 1 July heating degree days 4907 5108  
Cooling Degree Days 0 0  
Month to date cooling degree days 0 0  
Year to date cooling degree days 0 0  
Growing Degree Days 9 (Base 50)    
Moisture  
Dew Point 26 °F    
Average Humidity 29    
Maximum Humidity 45    
Minimum Humidity 12    
Precipitation  
Precipitation 0.00 in 0.03 in 0.50 in (1942)
Month to date precipitation T 0.18  
Year to date precipitation 0.26  
Sea Level Pressure  
Sea Level Pressure 29.74 in    
Wind  
Wind Speed 9 mph (NNE)    
Max Wind Speed 25 mph    
Max Gust Speed 33 mph    
Visibility 9 miles    
Events      
T = Trace of Precipitation, MM = Missing Value Source: NWS Daily Summary

Daily Weather History Graph

Daily Weather History Graph

Search for Another Location

Airport or City:

Trip Planner

Search our weather history database for the weather conditions in past years. The results will help you decide how hot, cold, wet, or windy it might be!

Date:

Astronomy

Apr. 06, 2013 Rise Set
Actual Time 6:27 AM MDT 7:18 PM MDT
Civil Twilight 6:01 AM MDT 7:45 PM MDT
Nautical Twilight 5:29 AM MDT 8:17 PM MDT
Astronomical Twilight 4:56 AM MDT 8:50 PM MDT
Moon 4:09 AM MDT (4/6) 3:52 PM MDT (4/6)
Length of Visible Light 13h 44m
Length of Day
12h 50m
Waning Crescent, 14% of the Moon is Illuminated
Apr 6
Waning Crescent
Apr 10
New
Apr 18
First Quarter
Apr 25
Full
May 2
Last Quarter

Hourly Weather History & Observations

Time (MDT) Temp. Windchill Dew Point Humidity Pressure Visibility Wind Dir Wind Speed Gust Speed Precip Events Conditions
12:02 AM 64.4 °F - 30.2 °F 28% 29.71 in 5.0 mi NNW 28.8 mph 41.4 mph N/A   Haze
12:11 AM 62.6 °F - 33.8 °F 34% 29.72 in 3.0 mi NNW 31.1 mph 44.9 mph N/A   Haze
12:19 AM 62.6 °F - 33.8 °F 34% 29.73 in 5.0 mi North 34.5 mph 47.2 mph N/A   Haze
12:28 AM 62.6 °F - 33.8 °F 34% 29.72 in 8.0 mi North 27.6 mph 44.9 mph N/A   Scattered Clouds
12:53 AM 60.1 °F - 34.0 °F 38% 29.60 in 10.0 mi North 26.5 mph 38.0 mph N/A   Partly Cloudy
1:53 AM 57.0 °F - 34.0 °F 42% 29.65 in 10.0 mi NNW 12.7 mph - N/A   Clear
2:48 AM 55.4 °F - 30.2 °F 38% 29.77 in 10.0 mi NNW 20.7 mph 28.8 mph N/A   Partly Cloudy
2:53 AM 55.9 °F - 30.0 °F 37% 29.65 in 10.0 mi NNW 20.7 mph 27.6 mph N/A   Partly Cloudy
3:53 AM 54.0 °F - 28.0 °F 37% 29.70 in 10.0 mi NNW 12.7 mph - N/A   Clear
4:53 AM 52.0 °F - 26.1 °F 37% 29.73 in 10.0 mi North 11.5 mph - N/A   Clear
5:53 AM 48.9 °F - 26.1 °F 41% 29.74 in 10.0 mi North 9.2 mph - N/A   Clear
6:53 AM 46.0 °F 44.8 °F 26.1 °F 46% 29.79 in 10.0 mi North 3.5 mph - N/A   Clear
7:53 AM 50.0 °F - 26.1 °F 39% 29.81 in 10.0 mi NW 4.6 mph - N/A   Clear
8:53 AM 59.0 °F - 25.0 °F 27% 29.80 in 10.0 mi North 19.6 mph 27.6 mph N/A   Clear
9:53 AM 64.0 °F - 24.1 °F 22% 29.81 in 10.0 mi North 16.1 mph - N/A   Clear
10:53 AM 64.9 °F - 21.9 °F 19% 29.82 in 10.0 mi NE 4.6 mph - N/A   Clear
11:53 AM 68.0 °F - 19.0 °F 15% 29.81 in 10.0 mi NNE 9.2 mph - N/A   Clear
12:53 PM 69.1 °F - 18.0 °F 14% 29.78 in 10.0 mi North 8.1 mph - N/A   Clear
1:53 PM 70.0 °F - 17.1 °F 13% 29.75 in 10.0 mi Variable 3.5 mph - N/A   Clear
2:53 PM 72.0 °F - 16.0 °F 12% 29.74 in 10.0 mi Variable 4.6 mph - N/A   Clear
3:53 PM 72.0 °F - 17.1 °F 12% 29.73 in 10.0 mi Calm Calm - N/A   Clear
4:53 PM 72.0 °F - 17.1 °F 12% 29.72 in 10.0 mi SE 5.8 mph - N/A   Clear
5:53 PM 71.1 °F - 17.1 °F 13% 29.72 in 10.0 mi ESE 4.6 mph - N/A   Clear
6:53 PM 66.9 °F - 18.0 °F 15% 29.74 in 10.0 mi ESE 8.1 mph - N/A   Mostly Cloudy
7:53 PM 66.0 °F - 28.0 °F 24% 29.74 in 10.0 mi South 13.8 mph 24.2 mph N/A   Overcast
8:53 PM 61.0 °F - 28.0 °F 29% 29.73 in 10.0 mi ESE 9.2 mph - N/A   Mostly Cloudy
9:53 PM 59.0 °F - 28.0 °F 31% 29.73 in 10.0 mi ESE 10.4 mph - N/A   Mostly Cloudy
10:53 PM 59.0 °F - 26.1 °F 28% 29.73 in 10.0 mi SE 11.5 mph - N/A   Mostly Cloudy
11:53 PM 57.0 °F - 27.0 °F 32% 29.74 in 10.0 mi NE 4.6 mph - N/A   Overcast